Tracking 30995 objects as of 6-Jul-2025
HD Live streaming from Space Station
objects crossing your sky now

DELTA 1 DEB

Track DELTA 1 DEB now!
10-day predictions


NORAD ID: 21446
Int'l Code: 1975-052EE
Perigee: 1,091.4 km
Apogee: 1,672.8 km
Inclination: 99.7 °
Period: 113.2 minutes
Semi major axis: 7753 km
RCS: 0.0507 m2 (small)
Launch date: June 12, 1975
Source: United States (US)
Launch site: AIR FORCE WESTERN TEST RANGE (AFWTR)

Note: This is SATELLITE DEBRIS
Your satellite tracking list
Your tracking list is empty




NASA's NSSDC Master Catalog

Two Line Element Set (TLE):
1 21446U 75052EE  25186.54270479  .00000170  00000-0  75138-3 0  9991
2 21446  99.7203 120.5457 0374966  84.1613 333.6837 12.71707377585363
Source of the keplerian elements: AFSPC